SNUGLITE 2
1 52899U 22065F   25362.66018709  .00001792  00000-0  35194-3 0  9997
2 52899  98.1937 143.1046 0007273 191.0450 169.0594 14.63883449186043
UmKA 1 (RS40S)
1 57172U 23091G   25362.82328053  .00009107  00000-0  44501-3 0  9990
2 57172  97.5324  57.2183 0013409   0.1468 359.9767 15.18393866138138
CubeBel-2 (EU11S)
1 57175U 23091K   25362.80499236  .00017767  00000-0  72413-3 0  9997
2 57175  97.5319  59.8336 0010801   3.1967 356.9337 15.24469555138308
RS-38S
1 57189U 23091Z   25362.86434469  .00022307  00000-0  77167-3 0  9992
2 57189  97.5345  64.4830 0007371 324.9231  35.1523 15.29879169138594
SONATE-2
1 59112U 24043Q   25362.32168777  .00038664  00000-0  79162-3 0  9995
2 59112  97.5336 139.1648 0009292 107.6256 252.6008 15.45956556101381
MO-122
1 60209U 24125G   25362.83263772  .00042300  00000-0  82367-3 0  9995
2 60209  97.2510 213.2261 0015433 120.1985 240.0797 15.47313057 83097
GRBBeta
1 60237U 24128C   25362.63242433  .00006227  00000-0  43734-3 0  9991
2 60237  61.9908  93.9513 0055688  99.5578 261.1813 15.04924635 80580
Curium One
1 60242U 24128H   25362.76499912  .00011453  00000-0  70410-3 0  9995
2 60242  61.9796  87.9783 0055260  96.2163 264.5230 15.09202427 80700
ROBUSTA-3A
1 60243U 24128J   25362.84199138  .00011926  00000-0  74647-3 0  9993
2 60243  61.9872  89.3146 0055505  93.7913 266.9529 15.08505149 80693
CatSat
1 60246U 24125J   25362.84258234  .00048090  00000-0  11103-2 0  9995
2 60246  97.2300 210.0652 0034362  87.5967 272.9214 15.41755156 81003
HYPERVIEW-1G (RS66S)
1 61772U 24199AP  25362.89806921  .00057126  00000-0  10406-2 0  9993
2 61772  97.3202 232.5495 0009325 168.9692 191.1765 15.49248503108110
AO-123
1 61781U 24199AY  25362.86987639  .00014599  00000-0  46872-3 0  9990
2 61781  97.3242 228.1458 0013808 191.9697 168.1219 15.32309262107812
ZIMSAT 2
1 61783U 24199BA  25361.58198973  .00358820  00000-0  17952-2 0  9999
2 61783  97.3047 235.3597 0006529 129.8237 230.3607 15.80833029111345
HADES-R (SO-124)
1 62690U 25009CK  25362.46631504  .00268641  00000-0  26822-2 0  9995
2 62690  97.3831  85.7537 0001646 294.6012  65.5076 15.64766434 53230
HYDRA-T
1 62692U 25009CM  25362.16657022  .00325136  00000-0  29053-2 0  9999
2 62692  97.3834  85.6956 0002146 291.8844  68.2188 15.67380277 53208
JINJUSat 1B
1 63210U 25052A   25362.64432905  .00021960  00000-0  82398-3 0  9998
2 63210  97.4196 254.7063 0003809   6.1220 354.0065 15.27230148 44013
NUSHSAT 1
1 63211U 25052B   25362.69373924  .00024844  00000-0  89964-3 0  9999
2 63211  97.4174 254.8994 0004000  10.0212 350.1107 15.28376245 44039
TEVEL2-4
1 63213U 25052D   25362.24330808  .00025420  00000-0  94116-3 0  9992
2 63213  97.4103 253.9698 0003915  31.2971 328.8500 15.27640376 43952
TEVEL2-5
1 63214U 25052E   25362.64258394  .00023486  00000-0  87166-3 0  9993
2 63214  97.4094 254.3522 0003916  29.5819 330.5641 15.27576892 44010
TEVEL2-6
1 63215U 25052F   25362.65037937  .00024007  00000-0  89211-3 0  9996
2 63215  97.4100 254.3479 0003951  28.8488 331.2969 15.27531017 44014
TEVEL2-1
1 63217U 25052H   25362.43443507  .00024349  00000-0  91436-3 0  9999
2 63217  97.4072 253.9310 0004506  38.8713 321.2850 15.27179025 43971
TEVEL2-3
1 63218U 25052J   25362.69548522  .00023118  00000-0  86743-3 0  9999
2 63218  97.4071 254.1967 0004552  38.5135 321.6428 15.27215947 44013
TEVEL2-2
1 63219U 25052K   25362.63175388  .00022963  00000-0  86235-3 0  9993
2 63219  97.4074 254.1272 0004465  38.9292 321.2268 15.27190029 44007
TEVEL2-9
1 63237U 25052AD  25362.67613907  .00021532  00000-0  84635-3 0  9994
2 63237  97.4134 253.8547 0008522  37.7883 322.3952 15.25661962 43970
TEVEL2-7
1 63238U 25052AE  25362.69167831  .00021293  00000-0  84100-3 0  9998
2 63238  97.4138 253.8406 0008603  38.2563 321.9284 15.25502000 43970
TEVEL2-8
1 63239U 25052AF  25362.69758277  .00021212  00000-0  83844-3 0  9994
2 63239  97.4136 253.8307 0008634  37.8842 322.3002 15.25475968 43973
HYDRA-W
1 63490U 25052BL  25361.94767591  .00096540  00000-0  21229-2 0  9993
2 63490  97.4041 255.9684 0010084  33.4707 326.7177 15.43582100 44061
HADES-ICM (SO-125)
1 63492U 25052BN  25362.67716705  .00082057  00000-0  19399-2 0  9990
2 63492  97.4050 256.3921 0010332  33.2441 326.9453 15.41469351 44150
Dragonfly
1 65729U 98067XH  25362.16083023  .00254261  00000-0  14472-2 0  9990
2 65729  51.6253  56.4851 0008397   7.7106 352.4022 15.77632435 15591
RSP-03
1 65732U 98067XL  25362.45457600  .00185291  00000-0  13078-2 0  9999
2 65732  51.6263  56.2137 0006193 350.2340   9.8537 15.72922553 15636
GHS-01
1 65733U 98067XM  25361.88679635  .00344717  00000-0  15714-2 0  9999
2 65733  51.6276  56.9127 0009580  10.1535 349.9659 15.82243780 15573
BOTAN
1 65942U 98067XP  25362.43141189  .00145148  00000-0  13533-2 0  9995
2 65942  51.6282  59.8249 0003790 359.7560   0.3434 15.66350240 12327
CEVROSAT1
1 66309U 25248S   25362.26466447  .00007594  00000-0  37608-3 0  9994
2 66309  45.4052 316.7685 0002214 190.8554 169.2285 15.18366843  8515
BEE-1000
1 66650U 25274A   25362.78446352  .00001701  00000-0  17439-3 0  9996
2 66650  97.7403 289.6792 0011404 193.1097 166.9827 14.91718347  4792
SPIRONE
1 66657U 25274H   25362.76760132  .00003904  00000-0  38488-3 0  9990
2 66657  97.7399 289.6999 0011099 215.2078 144.8409 14.92554194  4797
K-HERO
1 66660U 25274L   25362.75671313  .00004097  00000-0  39837-3 0  9998
2 66660  97.7406 289.7166 0012908 221.0124 139.0125 14.93054333  4796
SNUGLITE-III DURI
1 66661U 25274M   25362.75367446  .00003642  00000-0  35359-3 0  9998
2 66661  97.7402 289.7194 0013516 222.4545 137.5630 14.93183070  4797
SilverSat
1 66909U 98067XV  25362.49447708  .00087215  00000-0  13227-2 0  9991
2 66909  51.6306  63.9946 0003919 327.2243  32.8503 15.53863382  4060
